Wind_Speed
31 32 32 32 31 31 31 30 30 28 26 24 22 20 19 19 19 18 17 17 17 18 18 18 17 16 15 15 15 16 16 15 16 16 16 16 16 16 17 17 17 18 18 18
31 32 33 33 32 31 31 30 29 29 27 25 24 23 21 21 21 20 19 20 19 20 20 20 19 18 18 18 18 18 18 19 19 19 18 18 19 19 20 20 20 21 21 21
30 30 31 33 32 31 31 29 28 29 27 26 26 25 24 24 23 22 22 22 22 22 22 22 21 21 20 21 21 21 21 21 21 22 22 22 22 22 23 23 24 24 24 23
31 31 32 30 30 31 31 31 30 29 28 28 28 27 26 25 25 24 24 23 23 23 24 24 24 24 23 23 23 23 24 23 23 23 23 24 25 25 26 26 26 26 27 26
31 31 31 30 29 29 30 31 31 30 29 29 28 29 27 27 26 26 25 25 25 25 26 26 24 24 25 24 24 24 24 23 24 24 25 25 26 27 27 27 28 28 29 29
31 31 31 29 29 29 29 30 29 30 30 29 29 30 28 27 27 27 26 27 26 26 26 26 25 25 25 26 26 26 26 25 25 25 25 26 26 27 28 29 30 30 31 31
31 31 30 29 29 28 29 28 27 29 30 30 30 30 28 28 28 27 27 28 28 27 27 27 26 26 27 28 28 28 28 26 26 27 27 27 28 28 29 30 31 31 32 31
31 31 30 28 28 29 29 28 28 29 29 30 30 30 29 29 29 28 28 29 28 28 27 27 27 27 27 29 30 30 29 27 28 28 28 29 29 29 30 31 32 32 32 32
30 30 28 28 28 29 30 29 29 30 29 30 30 29 29 28 28 28 29 29 29 29 28 28 28 28 28 29 30 31 30 29 29 29 30 30 31 31 32 32 32 33 33 34
29 29 29 28 28 29 30 30 29 30 30 30 30 31 30 29 28 27 28 28 29 28 27 28 28 29 29 30 30 31 31 30 29 30 31 31 32 33 33 34 34 33 35 35
29 29 29 29 29 29 30 29 29 29 29 28 29 29 29 29 28 28 28 28 28 28 28 28 29 30 30 32 32 32 32 31 30 30 31 32 33 33 34 34 34 34 34 35
29 29 29 28 29 29 29 28 28 28 28 28 28 28 27 27 27 27 27 27 27 28 29 30 31 31 32 32 32 32 31 31 31 31 32 33 34 34 34 34 34 35 35 35
29 29 28 28 28 28 28 28 28 26 26 26 26 25 25 25 25 26 26 26 27 28 30 31 31 31 31 31 31 31 31 31 32 32 33 33 34 35 35 35 35 36 36 37
27 28 28 27 27 26 26 24 23 23 24 24 23 24 25 24 24 25 25 26 27 27 28 28 29 29 30 31 31 32 32 32 33 33 34 34 35 35 35 35 36 37 37 37
24 24 24 25 24 24 23 22 21 21 21 22 22 23 23 24 24 24 25 25 26 26 26 26 27 28 29 30 31 32 33 33 34 34 34 35 35 35 35 36 37 37 37 37
21 21 21 21 21 20 20 20 20 20 20 20 21 21 21 22 23 23 25 26 26 26 26 27 28 28 29 30 31 33 33 34 34 34 34 35 35 34 35 35 35 36 36 37
19 19 20 20 20 20 20 20 20 21 21 21 20 20 21 21 22 23 24 24 25 25 27 28 28 28 29 30 32 32 32 33 33 34 33 34 33 34 34 34 34 35 35 36
17 17 18 19 19 20 20 19 19 20 20 21 20 20 21 21 21 22 22 23 24 25 26 27 28 29 30 31 31 31 32 32 33 34 33 33 33 33 34 34 34 35 35 35
16 16 16 17 17 18 19 19 19 19 19 20 20 21 22 22 22 22 23 23 23 24 24 25 26 27 29 30 30 31 31 32 32 32 33 34 34 34 34 35 36 36 36 35
15 16 16 16 16 16 16 17 18 19 19 19 19 19 20 21 21 21 22 22 23 24 24 24 25 25 26 27 27 28 29 29 30 30 31 31 32 33 33 34 35 35 35 35
15 15 16 16 16 16 16 16 17 17 18 18 18 19 20 20 21 22 22 23 23 24 24 24 24 25 25 25 26 27 28 28 29 30 30 31 31 32 32 33 34 34 34 34
14 15 15 15 15 16 16 16 16 16 17 17 18 18 18 19 20 21 22 23 23 23 23 23 23 23 24 25 27 28 28 29 29 30 30 30 31 31 31 32 32 33 33 34
12 13 13 13 14 15 15 16 16 17 17 17 18 18 19 19 20 21 22 22 23 23 23 23 23 24 25 26 26 27 28 28 29 29 29 29 30 30 30 31 31 32 32 32
11 11 12 12 13 14 15 15 16 16 16 17 17 18 18 19 19 20 21 21 21 21 22 23 24 25 26 26 26 26 27 28 28 28 29 29 29 29 30 30 31 31 31 31
9 10 11 11 12 12 12 13 14 14 15 15 16 17 17 18 19 19 20 20 20 21 21 22 23 24 24 25 26 26 26 26 27 28 28 28 29 29 30 30 30 30 30 30
7 8 9 10 10 11 11 11 12 13 13 14 15 15 16 17 17 17 18 19 19 20 21 22 22 23 24 25 26 26 27 27 28 28 28 29 29 29 29 29 29 29 30 30
7 8 8 9 9 10 10 11 11 12 12 13 13 14 15 15 15 16 17 18 19 20 21 22 23 23 24 25 26 26 27 27 28 29 29 29 29 29 29 29 29 29 30 30
Wind_Direction
238 237 237 239 241 244 247 251 255 258 259 259 261 262 262 261 263 264 263 266 267 266 266 265 267 268 269 270 271 273 275 276 274 275 276 277 278 277 278 280 281 283 281 280
238 238 240 240 241 244 247 251 255 257 258 257 259 261 260 260 261 264 264 264 266 266 264 264 266 265 267 270 272 274 273 274 272 272 272 274 275 277 278 278 280 280 277 277
240 241 242 242 243 244 245 248 252 255 257 258 261 259 259 260 261 263 261 260 263 265 263 263 264 263 265 268 271 273 271 269 270 272 272 272 275 276 277 277 277 278 280 278
242 243 244 242 241 244 246 248 251 253 255 256 258 256 257 258 260 260 262 260 259 261 262 263 263 263 265 266 266 267 270 270 272 274 276 274 274 275 275 275 276 278 278 277
242 245 247 245 244 245 249 250 250 252 253 255 256 255 255 255 256 260 263 262 262 262 263 264 265 267 266 267 265 266 268 270 272 274 275 276 276 276 276 275 274 276 277 276
243 246 247 248 247 248 251 251 250 250 252 255 255 255 256 257 257 258 261 262 263 265 264 263 264 265 266 267 266 266 267 270 272 275 277 279 279 278 278 278 277 277 277 276
243 246 249 250 250 250 250 251 251 251 252 254 256 257 258 260 260 259 260 261 262 263 264 265 266 268 268 267 268 268 270 272 272 274 276 278 279 279 280 280 279 279 279 278
243 247 250 251 251 250 251 250 251 251 252 253 256 257 257 260 260 258 260 262 262 263 263 264 266 268 269 269 269 270 272 274 275 276 277 279 280 281 282 282 281 280 280 280
244 247 249 250 251 251 252 254 254 253 254 254 256 257 257 259 259 257 258 260 261 263 264 264 266 267 268 270 273 275 276 277 277 277 279 280 282 282 282 284 283 281 281 281
244 245 248 250 252 254 254 256 256 255 255 255 257 256 255 257 257 256 258 259 260 261 263 264 266 268 269 272 275 279 278 278 278 278 280 281 281 283 283 284 282 282 283 282
245 245 248 251 254 256 256 255 255 256 255 253 254 254 255 256 257 256 257 260 261 261 263 265 266 269 270 273 276 278 278 276 276 278 280 281 283 284 285 284 283 283 283 283
246 247 250 253 256 254 253 255 256 256 253 251 253 254 255 256 256 256 258 261 261 262 264 267 270 272 272 274 276 277 276 275 276 278 280 281 283 285 286 286 285 285 284 284
247 249 252 254 254 254 254 253 252 254 253 251 251 251 254 256 255 257 259 262 263 263 266 269 272 274 274 275 277 278 278 277 278 280 281 282 283 285 285 285 285 285 285 285
249 252 252 254 253 253 252 251 250 250 251 254 254 255 257 260 261 260 261 263 264 267 269 272 275 276 276 276 277 278 279 280 281 281 282 282 283 285 284 284 284 284 284 284
249 249 251 252 252 251 251 249 250 252 254 258 258 258 259 261 260 260 262 264 268 271 273 274 274 276 277 276 277 279 280 281 283 282 281 282 283 284 285 284 283 283 283 284
246 248 248 248 250 251 250 250 252 254 257 260 261 260 261 260 259 262 266 268 271 273 275 275 275 276 277 277 278 280 282 282 283 282 281 282 283 283 285 285 285 285 285 286
244 246 246 247 249 250 249 251 254 257 258 259 262 263 264 262 264 268 270 271 272 273 275 277 278 279 279 280 282 282 282 283 283 284 283 283 283 283 285 287 287 288 288 288
241 244 245 245 247 248 249 252 256 258 260 263 264 264 265 266 268 271 274 277 277 277 278 280 282 281 281 282 283 284 284 284 285 286 286 286 285 285 285 287 288 289 289 288
240 241 244 246 249 253 252 254 256 258 261 262 263 264 266 268 269 271 274 277 280 282 282 283 286 288 286 284 285 286 288 287 286 286 285 286 287 287 288 290 289 288 288 288
245 248 250 250 250 251 253 255 257 260 261 263 266 268 269 267 269 272 275 278 281 283 283 284 286 289 291 291 290 291 291 289 288 289 289 289 290 291 290 290 291 292 291 291
248 250 252 250 253 257 259 258 259 261 263 265 268 272 271 269 271 275 277 279 281 283 284 286 288 289 290 291 292 292 292 291 291 292 292 293 293 293 293 292 292 293 293 293
252 255 256 257 259 261 262 263 264 267 269 270 272 274 276 276 277 279 281 282 284 284 286 287 289 290 292 292 292 291 291 292 294 294 294 294 295 296 295 294 294 294 294 294
253 255 258 259 261 263 263 264 267 270 272 273 275 276 279 282 282 283 284 286 286 287 288 290 291 293 295 296 295 293 293 294 297 297 296 296 297 298 298 297 297 297 297 296
258 260 263 267 267 266 267 268 269 271 275 278 279 282 285 285 285 285 286 287 288 289 291 293 294 295 296 297 297 298 298 298 299 299 299 299 300 300 300 299 299 299 298 298
261 260 263 270 272 272 272 273 275 278 280 283 285 288 290 290 288 287 288 289 290 292 294 295 297 297 298 299 301 302 302 302 303 303 302 301 301 301 302 302 302 301 300 299
270 268 268 272 275 275 277 277 278 281 285 287 289 291 292 294 294 293 291 291 293 296 297 297 298 299 300 302 303 304 304 304 304 304 303 303 303 303 303 303 303 303 303 302
267 270 273 277 279 281 282 283 284 284 286 290 293 295 296 297 297 298 297 297 298 299 299 299 299 300 302 304 305 305 305 305 304 304 305 305 306 305 305 305 305 305 305 304
Height
5834 5838 5841 5844 5846 5849 5851 5853 5855 5858 5860 5863 5865 5866 5867 5868 5869 5869 5869 5870 5870 5870 5871 5871 5872 5871 5871 5871 5871 5871 5870 5870 5870 5869 5868 5868 5867 5867 5866 5866 5865 5864 5863 5862
5827 5831 5833 5836 5840 5842 5845 5847 5849 5851 5854 5857 5858 5860 5861 5862 5863 5864 5865 5865 5865 5865 5865 5866 5867 5867 5866 5866 5866 5866 5865 5865 5864 5864 5863 5863 5862 5862 5861 5861 5860 5859 5857 5856
5820 5824 5826 5829 5833 5836 5838 5841 5843 5845 5849 5850 5852 5853 5855 5856 5857 5858 5859 5860 5860 5860 5860 5860 5861 5861 5861 5861 5861 5860 5859 5858 5858 5858 5857 5857 5856 5855 5855 5854 5853 5852 5851 5850
5813 5817 5819 5825 5827 5830 5832 5834 5836 5838 5841 5843 5845 5847 5849 5850 5851 5852 5853 5853 5854 5854 5854 5854 5854 5854 5854 5854 5854 5854 5853 5852 5852 5852 5851 5850 5849 5849 5848 5847 5846 5845 5844 5843
5807 5809 5813 5817 5820 5823 5825 5827 5829 5831 5833 5835 5837 5839 5841 5843 5844 5845 5846 5847 5847 5848 5848 5847 5847 5847 5847 5847 5847 5847 5846 5845 5845 5845 5844 5842 5842 5841 5840 5839 5838 5837 5836 5835
5800 5803 5806 5811 5814 5815 5818 5819 5822 5824 5826 5828 5829 5831 5834 5835 5836 5838 5839 5839 5840 5840 5840 5840 5840 5840 5840 5840 5840 5840 5839 5838 5838 5837 5836 5835 5834 5833 5832 5830 5829 5827 5827 5826
5794 5796 5799 5803 5806 5808 5812 5814 5815 5816 5818 5820 5822 5824 5826 5827 5828 5830 5831 5831 5832 5832 5833 5833 5833 5833 5833 5833 5833 5833 5831 5830 5830 5829 5828 5827 5826 5825 5824 5822 5821 5820 5818 5817
5787 5790 5795 5796 5798 5801 5803 5805 5807 5808 5810 5811 5813 5815 5817 5818 5820 5821 5822 5823 5823 5824 5825 5825 5826 5826 5825 5825 5825 5824 5823 5822 5822 5821 5820 5819 5818 5816 5815 5814 5812 5811 5809 5808
5781 5785 5787 5789 5791 5793 5795 5797 5799 5801 5802 5804 5805 5807 5809 5810 5811 5812 5814 5815 5815 5816 5817 5817 5818 5818 5818 5817 5816 5815 5815 5814 5813 5813 5812 5810 5809 5808 5806 5805 5803 5801 5800 5798
5774 5777 5780 5782 5784 5786 5788 5789 5791 5792 5794 5795 5797 5799 5800 5802 5803 5804 5805 5806 5807 5807 5808 5809 5809 5809 5809 5808 5807 5806 5806 5805 5805 5804 5803 5801 5800 5798 5797 5795 5793 5792 5790 5788
5767 5770 5773 5775 5777 5778 5780 5781 5782 5784 5785 5786 5789 5790 5791 5793 5795 5796 5797 5797 5797 5798 5799 5800 5800 5800 5800 5799 5798 5798 5797 5796 5796 5795 5793 5792 5790 5788 5786 5784 5783 5781 5779 5777
5761 5764 5766 5768 5769 5770 5772 5773 5774 5776 5777 5778 5780 5782 5783 5785 5786 5787 5788 5789 5789 5790 5791 5791 5792 5791 5791 5790 5789 5789 5787 5787 5786 5785 5784 5782 5780 5778 5776 5774 5772 5770 5769 5767
5754 5756 5759 5761 5762 5763 5764 5765 5767 5768 5770 5771 5772 5774 5776 5777 5779 5779 5780 5780 5780 5781 5782 5783 5783 5782 5782 5781 5780 5779 5779 5778 5777 5775 5774 5772 5770 5769 5767 5765 5762 5760 5758 5756
5747 5750 5751 5753 5755 5756 5758 5759 5760 5762 5764 5765 5766 5767 5769 5770 5771 5772 5772 5772 5773 5773 5774 5774 5774 5773 5772 5772 5771 5770 5769 5768 5767 5765 5764 5762 5760 5758 5756 5754 5752 5750 5747 5745
5741 5743 5745 5747 5748 5750 5751 5753 5754 5756 5757 5758 5759 5760 5762 5762 5764 5764 5765 5765 5765 5765 5766 5766 5766 5765 5764 5763 5762 5761 5760 5758 5757 5755 5753 5752 5750 5748 5746 5744 5741 5739 5737 5735
5735 5737 5739 5741 5742 5744 5746 5747 5748 5750 5751 5752 5753 5754 5754 5755 5756 5757 5758 5758 5758 5757 5757 5757 5757 5756 5755 5754 5753 5752 5750 5748 5747 5745 5743 5741 5739 5738 5735 5733 5730 5728 5726 5724
5729 5731 5733 5735 5737 5738 5740 5741 5743 5744 5745 5746 5747 5747 5748 5748 5749 5749 5750 5750 5749 5749 5749 5748 5748 5747 5746 5745 5744 5742 5740 5738 5737 5734 5732 5730 5728 5727 5725 5723 5720 5718 5716 5713
5725 5726 5728 5730 5731 5733 5734 5736 5737 5738 5739 5740 5741 5741 5742 5742 5742 5742 5742 5742 5742 5741 5741 5740 5739 5738 5737 5736 5734 5733 5731 5729 5727 5725 5723 5721 5719 5717 5715 5713 5710 5707 5705 5702
5720 5722 5723 5725 5726 5727 5729 5730 5731 5733 5733 5734 5735 5735 5735 5736 5736 5736 5736 5736 5735 5734 5733 5732 5731 5730 5728 5727 5725 5723 5721 5720 5718 5715 5713 5711 5709 5707 5704 5702 5699 5696 5693 5691
5716 5718 5719 5720 5721 5722 5724 5725 5726 5727 5728 5728 5729 5729 5729 5730 5730 5730 5729 5729 5728 5727 5726 5725 5724 5722 5720 5718 5717 5715 5713 5711 5709 5707 5704 5702 5699 5697 5694 5691 5688 5686 5683 5680
5713 5714 5715 5716 5716 5717 5718 5719 5720 5721 5722 5722 5722 5723 5723 5723 5724 5723 5723 5722 5721 5720 5719 5718 5716 5715 5713 5711 5709 5707 5705 5703 5701 5698 5695 5692 5690 5687 5684 5681 5678 5675 5672 5669
5708 5709 5710 5711 5711 5712 5713 5714 5715 5715 5716 5716 5717 5717 5717 5717 5717 5716 5715 5715 5714 5713 5712 5710 5709 5707 5705 5704 5702 5699 5697 5695 5692 5689 5686 5683 5681 5678 5674 5671 5668 5665 5662 5659
5704 5705 5705 5706 5707 5708 5708 5709 5710 5710 5710 5710 5711 5711 5710 5710 5710 5709 5709 5708 5707 5706 5705 5703 5701 5700 5698 5696 5694 5691 5689 5686 5683 5680 5677 5675 5672 5668 5665 5662 5659 5655 5652 5649
5700 5701 5701 5702 5703 5703 5704 5704 5705 5705 5705 5705 5705 5704 5704 5704 5703 5702 5701 5701 5700 5699 5697 5696 5694 5692 5690 5688 5686 5684 5681 5678 5675 5672 5669 5666 5663 5660 5656 5653 5650 5646 5643 5639
5697 5697 5698 5699 5699 5699 5699 5700 5700 5700 5700 5700 5699 5699 5698 5697 5697 5696 5695 5694 5693 5691 5690 5689 5687 5685 5683 5681 5679 5676 5673 5670 5667 5664 5661 5657 5654 5651 5647 5644 5640 5637 5633 5630
5694 5694 5695 5695 5695 5696 5696 5696 5696 5696 5696 5695 5694 5694 5693 5692 5691 5690 5689 5687 5686 5685 5683 5682 5680 5678 5676 5673 5671 5668 5666 5662 5659 5656 5653 5649 5646 5642 5638 5635 5631 5627 5624 5620
5692 5692 5692 5693 5693 5692 5692 5692 5692 5692 5691 5691 5690 5689 5688 5687 5686 5684 5683 5682 5680 5679 5677 5675 5673 5671 5669 5666 5664 5661 5658 5655 5651 5648 5644 5641 5637 5633 5629 5626 5622 5619 5615 5611